Printer-friendly version

IAU Minor Planet Center

Minor Planet Center

MPEC 2006-C36 : 2006 CL9

The following Minor Planet Electronic Circular may be linked-to from your own Web pages, but must not otherwise be redistributed electronically.


Read MPEC 2006-C35 Read MPEC 2006-C37


M.P.E.C. 2006-C36                                Issued 2006 Feb. 5, 21:53 UT

     The Minor Planet Electronic Circulars contain information on unusual
         minor planets and routine data on comets.  They are published
   on behalf of Commission 20 of the International Astronomical Union by the
          Minor Planet Center, Smithsonian Astrophysical Observatory,
                          Cambridge, MA 02138, U.S.A.

                  Supported in part by the Brinson Foundation
                  Supported in part by the TABASGO Foundation
             Prepared using the Tamkin Foundation Computer Network

                              MPC@CFA.HARVARD.EDU
          URL http://cfa-www.harvard.edu/iau/mpc.html  ISSN 1523-6714

                                   2006 CL9

Observations:
     K06C09L* C2006 02 04.15009 06 23 30.21 +17 43 21.5          18.2   EC036704
     K06C09L  C2006 02 04.16307 06 23 31.80 +17 43 56.9          18.4   EC036704
     K06C09L  C2006 02 04.18869 06 23 34.92 +17 45 05.1          18.7   EC036704
     K06C09L  C2006 02 04.20150 06 23 36.45 +17 45 40.0          18.5   EC036704
     K06C09L  C2006 02 04.98844 06 25 53.19 +18 20 45.2          18.0   EC036147
     K06C09L  C2006 02 04.99278 06 25 53.86 +18 20 57.1          17.9   EC036147
     K06C09L  C2006 02 04.99834 06 25 54.72 +18 21 11.4          17.6   EC036147
     K06C09L cC2006 02 05.05486 06 26 05.04 +18 23 32.0                 EC036J95
     K06C09L IC2006 02 05.05599 06 26 05.25 +18 23 34.9                 EC036J95
     K06C09L IC2006 02 05.06303 06 26 06.47 +18 23 53.4          18.3 R EC036J95
     K06C09L  C2006 02 05.11456 06 26 23.55 +18 26 56.8          17.6 R EC036H36
     K06C09L  C2006 02 05.12682 06 26 25.25 +18 27 30.7          18.0 R EC036H36
     K06C09L  C2006 02 05.13744 06 26 26.83 +18 28 02.4          17.9 R EC036H36
     K06C09L  C2006 02 05.71286 06 28 20.89 +18 54 13.1          17.8 R EC036A80
     K06C09L  C2006 02 05.71785 06 28 21.68 +18 54 28.6          17.9 R EC036A80
     K06C09L  C2006 02 05.72264 06 28 22.49 +18 54 42.6          17.8 R EC036A80
     K06C09L  C2006 02 05.83166 06 28 40.43 +19 00 14.8                 EC036595
     K06C09L  C2006 02 05.84554 06 28 42.67 +19 00 55.3          18.0 V EC036595

Observer details:
147 Osservatorio Astronomico di Suno.  Observers D. Crespi, S. Foglia,
    G. Galli, S. Minuto.  Measurers S. Foglia, G. Galli.  0.40-m f/4 reflector
    + CCD.
595 Farra d'Isonzo.  Observers M. Spolaor, G. Lombardi, E. Pettarin, F. Piani.
    Measurers G. Lombardi, E. Pettarin.  0.40-m f/4.5 reflector + CCD.
704 Lincoln Laboratory ETS, New Mexico.  Observers M. Bezpalko, L. Manguso,
    D. Torres, R. Kracke, A. Milner, H. Love.  Measurers J. Stuart, R. Sayer,
    J. Evans, J. Kommers.  1.0-m f/2.15 reflector + CCD.
A80 Lindenberg Observatory.  Observer A. Knofel.  0.30-m f/4 reflector + CCD.
H36 Sandlot Observatory, Scranton.  Observer G. Hug.  0.30-m
    Schmidt-Cassegrain + CCD.
J95 Great Shefford.  Observer P. Birtwhistle.  0.40-m f/6.0 Schmidt-Cassegrain
    + CCD.

Orbital elements:
2006 CL9                                                 Earth MOID = 0.0396 AU
Epoch 2006 Mar. 6.0 TT = JDT 2453800.5                  MPC
M   9.07339              (2000.0)            P               Q
n   0.63271443     Peri.    9.63763     -0.85815950     -0.51230803
a   1.3437884      Node   139.48880     +0.46755005     -0.80662481
e   0.2356717      Incl.    2.93027     +0.21203590     -0.29478278
P   1.56           H   22.3           G   0.15           U   7
Residuals in seconds of arc
060204 704  0.0   0.2+    060204 147  0.4-  0.1+    060205 H36  0.7+  1.2+
060204 704  0.0   0.2+    060205 J95  0.6-  0.0     060205 A80  0.4+  0.7-
060204 704  0.0   0.7-    060205 J95  0.2-  0.0     060205 A80  0.5-  0.0
060204 704  0.4-  0.0     060205 J95  0.6+  0.0     060205 A80  0.5-  0.2-
060204 147  0.5-  0.2-    060205 H36  0.7-  0.0     060205 595  0.9-  0.2+
060204 147  0.4-  0.4+    060205 H36  0.8-  0.7-    060205 595  0.6+  0.9+

Ephemeris:
2006 CL9                 a,e,i = 1.34, 0.24, 3                   q = 1.0271
Date    TT    R. A. (2000) Decl.     Delta      r     Elong.  Phase     V
2006 02 04    06 23.04   +17 37.3    0.0630   1.035   140.2    37.5    17.9
2006 02 14    07 05.73   +26 15.8    0.0526   1.028   139.5    38.6    17.5
2006 02 24    08 25.21   +35 22.2    0.0478   1.028   142.0    36.3    17.2
2006 03 06    10 11.54   +38 54.1    0.0507   1.034   144.8    33.6    17.3
2006 03 16    11 37.88   +35 23.7    0.0612   1.046   146.5    31.6    17.7
2006 03 26    12 27.80   +29 33.2    0.0776   1.064   148.3    29.5    18.2
2006 04 05    12 54.53   +23 49.4    0.0991   1.087   150.3    27.1    18.7
2006 04 15    13 09.97   +18 37.9    0.125    1.115   151.2    25.6    19.2
2006 04 25    13 20.26   +13 58.3    0.157    1.145   150.4    25.7    19.8
2006 05 05    13 28.91   +09 43.0    0.196    1.178   147.7    27.2    20.3
2006 05 15    13 37.88   +05 48.9    0.241    1.213   143.7    29.6    20.9
2006 05 25    13 47.86   +02 14.7    0.293    1.249   139.0    32.2    21.5
2006 06 04    13 59.29   -01 02.5    0.353    1.285   134.0    34.6    22.0

Gareth V. Williams           (C) Copyright 2006 MPC           M.P.E.C. 2006-C36

Read MPEC 2006-C35 Read MPEC 2006-C37


Our Web policy. Index to the CBAT/MPC/ICQ pages.


Valid HTML 4.01!